Hourly Weather Ovcharovka

Today, 7 March, Sunday

Time Temperature Precipitation Wind Pressure Humidity
00:00 -16°C° 0 mm 3 mps 741 mmHg 91%
01:00 -16°C° 0 mm 3 mps 741 mmHg 91%
02:00 -17°C° 0 mm 4 mps 740 mmHg 91%
03:00 -15°C° 0 mm 3 mps 740 mmHg 93%
04:00 -16°C° 0 mm 4 mps 739 mmHg 92%
05:00 -17°C° 0 mm 5 mps 739 mmHg 91%
06:00 -16°C° 0 mm 6 mps 738 mmHg 90%
07:00 -15°C° 0 mm 7 mps 737 mmHg 88%
08:00 -15°C° 0 mm 8 mps 736 mmHg 86%
09:00 -13°C° 0 mm 10 mps 735 mmHg 85%
10:00 -12°C° 0.1 mm 10 mps 734 mmHg 85%
11:00 -10°C° 0.1 mm 10 mps 733 mmHg 85%
12:00 -9°C° 0.1 mm 11 mps 732 mmHg 85%
13:00 -9°C° 0.2 mm 11 mps 731 mmHg 87%
14:00 -8°C° 0.2 mm 11 mps 730 mmHg 90%
15:00 -8°C° 0 mm 10 mps 729 mmHg 92%
16:00 -8°C° 0.3 mm 10 mps 728 mmHg 92%
17:00 -6°C° 0.3 mm 9 mps 728 mmHg 92%
18:00 -6°C° 0.3 mm 9 mps 727 mmHg 93%
19:00 -6°C° 0.7 mm 8 mps 727 mmHg 92%
20:00 -7°C° 0.7 mm 7 mps 727 mmHg 92%
21:00 -7°C° 0.7 mm 5 mps 727 mmHg 92%
22:00 -8°C° 0.1 mm 5 mps 728 mmHg 88%
23:00 -10°C° 0.1 mm 5 mps 728 mmHg 84%

Tomorrow, 8 March, Monday

Time Temperature Precipitation Wind Pressure Humidity
00:00 -11°C° 0.1 mm 6 mps 729 mmHg 80%
01:00 -11°C° 0 mm 6 mps 729 mmHg 82%
02:00 -12°C° 0 mm 5 mps 729 mmHg 83%
03:00 -13°C° 0 mm 5 mps 729 mmHg 84%
04:00 -12°C° 0 mm 5 mps 729 mmHg 85%
05:00 -12°C° 0 mm 6 mps 729 mmHg 87%
06:00 -12°C° 0 mm 6 mps 729 mmHg 88%
07:00 -11°C° 0 mm 6 mps 729 mmHg 88%
08:00 -12°C° 0 mm 7 mps 729 mmHg 89%
09:00 -11°C° 0 mm 7 mps 729 mmHg 89%
10:00 -11°C° 0 mm 8 mps 730 mmHg 87%
11:00 -11°C° 0 mm 8 mps 730 mmHg 84%
12:00 -10°C° 0 mm 8 mps 731 mmHg 82%
13:00 -11°C° 0 mm 7 mps 731 mmHg 82%
14:00 -10°C° 0 mm 6 mps 732 mmHg 82%
15:00 -10°C° 0 mm 5 mps 733 mmHg 82%
16:00 -10°C° 0 mm 4 mps 733 mmHg 84%
17:00 -11°C° 0 mm 4 mps 734 mmHg 86%
18:00 -12°C° 0 mm 3 mps 734 mmHg 88%
19:00 -12°C° 0 mm 2 mps 735 mmHg 89%
20:00 -12°C° 0 mm 2 mps 735 mmHg 90%
21:00 -13°C° 0 mm 2 mps 736 mmHg 90%
22:00 -13°C° 0 mm 2 mps 736 mmHg 92%
23:00 -14°C° 0 mm 2 mps 736 mmHg 93%

Day after tomorrow, 9 March, Tuesday

Time Temperature Precipitation Wind Pressure Humidity
00:00 -14°C° 0 mm 2 mps 736 mmHg 94%
01:00 -14°C° 0 mm 2 mps 737 mmHg 95%
02:00 -14°C° 0 mm 2 mps 737 mmHg 95%
03:00 -14°C° 0 mm 2 mps 738 mmHg 95%
04:00 -16°C° 0 mm 3 mps 738 mmHg 95%
05:00 -17°C° 0 mm 3 mps 738 mmHg 95%
06:00 -17°C° 0 mm 3 mps 738 mmHg 95%
07:00 -18°C° 0 mm 3 mps 739 mmHg 95%
08:00 -18°C° 0 mm 3 mps 739 mmHg 95%
09:00 -19°C° 0 mm 4 mps 740 mmHg 94%
10:00 -18°C° 0 mm 4 mps 740 mmHg 93%
11:00 -17°C° 0 mm 4 mps 740 mmHg 92%
12:00 -17°C° 0 mm 4 mps 741 mmHg 90%
13:00 -16°C° 0 mm 4 mps 741 mmHg 89%
14:00 -16°C° 0 mm 4 mps 741 mmHg 88%
15:00 -15°C° 0 mm 4 mps 742 mmHg 87%
16:00 -16°C° 0 mm 4 mps 742 mmHg 89%
17:00 -16°C° 0 mm 3 mps 742 mmHg 90%
18:00 -17°C° 0 mm 3 mps 743 mmHg 92%
19:00 -17°C° 0 mm 3 mps 743 mmHg 93%
20:00 -18°C° 0 mm 3 mps 744 mmHg 93%
21:00 -19°C° 0 mm 3 mps 744 mmHg 94%
22:00 -21°C° 0 mm 3 mps 745 mmHg 95%
23:00 -22°C° 0 mm 3 mps 745 mmHg 96%

10 March, Wednesday

Time Temperature Precipitation Wind Pressure Humidity
00:00 -23°C° 0 mm 3 mps 745 mmHg 96%
01:00 -24°C° 0 mm 3 mps 745 mmHg 97%
02:00 -24°C° 0 mm 2 mps 746 mmHg 97%
03:00 -24°C° 0 mm 2 mps 746 mmHg 97%
04:00 -25°C° 0 mm 2 mps 746 mmHg 97%
05:00 -26°C° 0 mm 2 mps 746 mmHg 96%
06:00 -26°C° 0 mm 2 mps 747 mmHg 96%
07:00 -26°C° 0 mm 2 mps 747 mmHg 95%
08:00 -25°C° 0 mm 2 mps 747 mmHg 94%
09:00 -24°C° 0 mm 2 mps 748 mmHg 93%
10:00 -23°C° 0 mm 2 mps 748 mmHg 91%
11:00 -21°C° 0 mm 2 mps 748 mmHg 88%
12:00 -20°C° 0 mm 2 mps 748 mmHg 85%
13:00 -19°C° 0 mm 2 mps 748 mmHg 84%
14:00 -19°C° 0 mm 2 mps 748 mmHg 83%
15:00 -18°C° 0 mm 2 mps 748 mmHg 81%
16:00 -19°C° 0 mm 2 mps 748 mmHg 84%
17:00 -18°C° 0 mm 1 mps 748 mmHg 87%
18:00 -19°C° 0 mm 1 mps 748 mmHg 91%
19:00 -20°C° 0 mm 1 mps 749 mmHg 90%
20:00 -24°C° 0 mm 2 mps 749 mmHg 90%
21:00 -25°C° 0 mm 2 mps 749 mmHg 89%
22:00 -25°C° 0 mm 2 mps 750 mmHg 90%
23:00 -22°C° 0 mm 1 mps 750 mmHg 91%

11 March, Thursday

Time Temperature Precipitation Wind Pressure Humidity
00:00 -23°C° 0 mm 1 mps 750 mmHg 91%
01:00 -23°C° 0 mm 1 mps 751 mmHg 92%
02:00 -24°C° 0 mm 1 mps 751 mmHg 93%
03:00 -24°C° 0 mm 1 mps 751 mmHg 93%
04:00 -24°C° 0 mm 1 mps 751 mmHg 93%
05:00 -24°C° 0 mm 1 mps 751 mmHg 93%
06:00 -25°C° 0 mm 1 mps 751 mmHg 93%
07:00 -23°C° 0 mm 1 mps 752 mmHg 91%
08:00 -22°C° 0 mm 1 mps 752 mmHg 90%
09:00 -21°C° 0 mm 1 mps 753 mmHg 88%
10:00 -19°C° 0 mm 1 mps 753 mmHg 85%
11:00 -18°C° 0 mm 1 mps 753 mmHg 82%
12:00 -16°C° 0 mm 1 mps 753 mmHg 78%
13:00 -16°C° 0 mm 1 mps 753 mmHg 77%
14:00 -15°C° 0 mm 1 mps 753 mmHg 76%
15:00 -15°C° 0 mm 1 mps 753 mmHg 75%
16:00 -16°C° 0 mm 1 mps 753 mmHg 79%
17:00 -17°C° 0 mm 1 mps 753 mmHg 82%
18:00 -19°C° 0 mm 1 mps 752 mmHg 86%
19:00 -19°C° 0 mm 1 mps 753 mmHg 86%
20:00 -23°C° 0 mm 2 mps 753 mmHg 85%
21:00 -24°C° 0 mm 2 mps 753 mmHg 85%
22:00 -24°C° 0 mm 2 mps 753 mmHg 86%
23:00 -24°C° 0 mm 2 mps 753 mmHg 86%

12 March, Friday

Time Temperature Precipitation Wind Pressure Humidity
00:00 -25°C° 0 mm 3 mps 753 mmHg 87%
01:00 -25°C° 0 mm 3 mps 753 mmHg 87%
02:00 -26°C° 0 mm 3 mps 753 mmHg 87%
03:00 -26°C° 0 mm 3 mps 753 mmHg 87%
04:00 -26°C° 0 mm 3 mps 752 mmHg 86%
05:00 -27°C° 0 mm 4 mps 752 mmHg 84%
06:00 -27°C° 0 mm 4 mps 752 mmHg 82%
07:00 -25°C° 0 mm 4 mps 752 mmHg 82%
08:00 -25°C° 0 mm 5 mps 752 mmHg 82%
09:00 -24°C° 0 mm 6 mps 751 mmHg 82%
10:00 -22°C° 0 mm 6 mps 751 mmHg 83%
11:00 -20°C° 0 mm 6 mps 751 mmHg 83%
12:00 -18°C° 0 mm 7 mps 750 mmHg 84%
13:00 -17°C° 0 mm 7 mps 750 mmHg 84%
14:00 -15°C° 0 mm 7 mps 749 mmHg 83%
15:00 -15°C° 0 mm 8 mps 749 mmHg 83%
16:00 -15°C° 0 mm 8 mps 748 mmHg 82%
17:00 -15°C° 0 mm 8 mps 747 mmHg 81%
18:00 -15°C° 0 mm 8 mps 747 mmHg 81%
19:00 -15°C° 0 mm 8 mps 746 mmHg 80%
20:00 -14°C° 0 mm 9 mps 746 mmHg 79%
21:00 -14°C° 0 mm 9 mps 746 mmHg 79%
22:00 -14°C° 0.1 mm 10 mps 745 mmHg 83%
23:00 -14°C° 0.1 mm 10 mps 745 mmHg 87%
Show more